Location: Bergnerzell
(49.1816°N, 10.2565°E)
Time: 21:26:22
(UTC+00:00)

Helios 1A Rocket - Pass Details

Date: 23 May 2024
Orbit: 521 x 544 km, 98.3° (Epoch: 14 June)

Event Time Altitude Azimuth Distance (km) Brightness Sun altitude
Exits shadow 00:09:00 41° 146° (SE) 786 3.2 -19.2°
Maximum altitude 00:10:14 72° 74° (ENE) 569 2.9 -19.1°
Drops below altitude 10° 00:14:05 10° 350° (N) 1,794 6.4 -19.0°
Sets 00:16:12 0° 348° (NNW) 2,685 7.4 -18.9°
